This is the latest recevied weather packets stored in our database for station/object F4JSG-10. If no packets are shown the sender has not sent any weather packets the latest 1 day(s).
| Time | Temp. | Humidity | Pressure | Rain* | Wind** | Luminosity | Snow |
|---|---|---|---|---|---|---|---|
| 1777791941 | 18.89° C | 50% | 989.5 hPa | - | - | - | - |
| 1777791937 | 18.89° C | 50% | 989.5 hPa | - | - | - | - |
| 1777791041 | 17.78° C | 55% | 989.6 hPa | - | - | - | - |
| 1777791037 | 17.78° C | 55% | 989.6 hPa | - | - | - | - |
| 1777790140 | 16.11° C | 57% | 989.5 hPa | - | - | - | - |
| 1777790137 | 16.11° C | 57% | 989.5 hPa | - | - | - | - |
| 1777789240 | 16.11° C | 55% | 989.6 hPa | - | - | - | - |
| 1777789237 | 16.11° C | 55% | 989.6 hPa | - | - | - | - |
| 1777788340 | 15° C | 57% | 989.6 hPa | - | - | - | - |
| 1777788337 | 15° C | 57% | 989.6 hPa | - | - | - | - |
| 1777787440 | 15° C | 58% | 989.5 hPa | - | - | - | - |
| 1777787436 | 15° C | 58% | 989.5 hPa | - | - | - | - |
| 1777786540 | 14.44° C | 59% | 989.4 hPa | - | - | - | - |
| 1777786536 | 14.44° C | 59% | 989.4 hPa | - | - | - | - |
| 1777785640 | 13.89° C | 62% | 989.4 hPa | - | - | - | - |
| 1777785636 | 13.89° C | 62% | 989.4 hPa | - | - | - | - |
| 1777784740 | 13.33° C | 61% | 989.3 hPa | - | - | - | - |
| 1777784736 | 13.33° C | 61% | 989.3 hPa | - | - | - | - |
| 1777783840 | 12.78° C | 65% | 989.3 hPa | - | - | - | - |
| 1777783836 | 12.78° C | 65% | 989.3 hPa | - | - | - | - |
| 1777782940 | 12.22° C | 62% | 989.3 hPa | - | - | - | - |
| 1777782936 | 12.22° C | 62% | 989.3 hPa | - | - | - | - |
| 1777782040 | 12.22° C | 60% | 989.4 hPa | - | - | - | - |
| 1777782036 | 12.22° C | 60% | 989.4 hPa | - | - | - | - |
| 1777781140 | 12.78° C | 62% | 989.2 hPa | - | - | - | - |
* Rain since midnight (hover to see other rain measurements)
** Current wind speed in m/s (hover to see current wind gust speed)